DELTA 1 DEB, 10764

Orbit data source: Space-Track

DELTA 1 DEB, 10764 is space debris in SSO originally from a launch on Thu, 29 Jul 1976 UTC launched from the Air Force Western Test Range (AFWTR). Debris objects in space refer to the collection of defunct objects orbiting the Earth. Examples of debris include non-operational satellites, rocket bodies, and fragments generated from explosions, collisions, or faulty payload assembly.

Loading next visibility...
Identifier
10764, 1976-077BM
Orbit
SSO
Country
Flag of USUS
Related business
Manufacturer
Unknown
Mission
Spacecraft
Bus & Motor
Unknown
Mass
Unknown
Launch date (UTC)
1976-07-29 (50 years ago)
Launch vehicle
Unknown
Launch site
Air Force Western Test Range (AFWTR)
Object type
Payload
Rocket body
Debris
Shape & HBR
Unknown shape, 0.3 m
Radar Cross Section
Small (<0.1 m²)

Expand to show TLE details & history
Last TLE update: 3 hours ago

TLE from 3 hours ago
0 DELTA 1 DEB
1 10764U 76077BM  26038.31983958 -.00000054  00000-0 -14199-3 0  9998
2 10764 102.1224 174.3288 0227138 192.3452 196.8500 12.04658919178969
Epoch: 2026-02-07T07:40Z
TLE epoch observation values (Epoch: 2026-02-07T07:40:34.139Z)
Latitude
27.80863°
Longitude
-84.73274°
Altitude
1,838.231 km
Speed
6.892 km/s
True Right ascension
11h 11m 25s
True Declination
27° 41' 08"
Sunlit
Object was in full shadow at epoch
Visualization orbit readout
Latitude
Unknown
Longitude
Unknown
Altitude
Unknown
Speed
Unknown
Apparent Right ascension
Unknown
Apparent Declination
Unknown
Sunlit
N/A
Visualization observer readout
Local Sidereal Time
13:05:06
Azimuth
Unknown
Elevation
Unknown
Doppler factor
Unknown
Orbital elements
Apogee altitude
1,840.219 km
Perigee altitude
1,475.171 km
Semi-major axis
8,035.832 km
Eccentricity
0.02271
Inclination
102.1224°
RAAN
174.3288°
Arg. of periapsis
192.3452°
True anomaly
196.11553°
Mean anomaly
196.85°
Eccentric anomaly
196.4808°
Mean motion
3.01298 °/min
Orbital period
119.48 mins
BSTAR
-0.00014199
Loading maneuver chart data...
Computing Atmospheric mass density...
Loading historical data...
Loading historical data...
Loading historical data...
Loading historical data...
Loading historical data...
Loading historical data...
Loading historical data...

Documentation

Showing up to 5 results
|